Location: Eaton Estates
(41.3089°N, 82.0057°W)
Time: 09:52:09
(UTC+00:00)

USA 308 - Pass Details

Date: 01 November 2021
Orbit: 562 x 573 km, 54.0° (Epoch: 26 November)

Event Time Altitude Azimuth Distance (km) Brightness Sun altitude
Exits shadow 11:25:08 - 316° (NW) 2,310 5.5 -7.1°
Reaches altitude 10° 11:26:48 10° 331° (NNW) 1,857 5.1 -6.8°
Maximum altitude 11:29:23 16° 9° (N) 1,526 5.0 -6.3°
Drops below altitude 10° 11:31:58 10° 47° (NE) 1,857 6.0 -5.8°
Sets 11:35:01 0° 70° (ENE) 2,753 7.4 -5.3°
